Time,TemperatureF,DewpointF,PressureIn,WindDirection,WindDirectionDegrees,WindSpeedMPH,WindSpeedGustMPH,Humidity,HourlyPrecipIn,Conditions,Clouds,dailyrainin,SoftwareType,DateUTC
2013-01-09 00:02:00,26.0,21.0,-100.00,WSW,250,9.0,11.0,84,0.00,,,-99.99,,2013-01-09 06:02:00,
2013-01-09 00:12:00,24.0,20.0,-100.00,WSW,240,9.0,11.0,84,0.00,,,-99.99,,2013-01-09 06:12:00,
2013-01-09 00:22:00,24.0,20.0,-100.00,WSW,240,8.0,11.0,85,0.00,,,-99.99,,2013-01-09 06:22:00,
2013-01-09 00:32:00,25.0,21.0,-100.00,West,260,9.0,9.0,85,0.00,,,-99.99,,2013-01-09 06:32:00,
2013-01-09 00:42:00,25.0,21.0,-100.00,West,260,9.0,9.0,85,0.00,,,-99.99,,2013-01-09 06:42:00,
2013-01-09 00:52:00,28.0,24.0,-100.00,West,270,12.0,17.0,86,0.00,,,-99.99,,2013-01-09 06:52:00,
2013-01-09 01:02:00,28.0,24.0,-100.00,West,270,12.0,17.0,86,0.00,,,-99.99,,2013-01-09 07:02:00,
2013-01-09 01:12:00,29.0,25.0,-100.00,West,270,14.0,17.0,85,0.00,,,-99.99,,2013-01-09 07:12:00,
2013-01-09 01:22:00,28.0,24.0,-100.00,West,265,15.0,18.0,84,0.00,,,-99.99,,2013-01-09 07:22:00,
2013-01-09 01:32:00,29.0,25.0,-100.00,West,270,16.0,20.0,84,0.00,,,-99.99,,2013-01-09 07:32:00,
2013-01-09 01:42:00,29.0,25.0,-100.00,West,270,16.0,20.0,84,0.00,,,-99.99,,2013-01-09 07:42:00,
2013-01-09 01:52:00,30.0,25.0,-100.00,West,275,16.0,23.0,83,0.00,,,-99.99,,2013-01-09 07:52:00,
2013-01-09 02:02:00,30.0,25.0,-100.00,West,275,16.0,23.0,83,0.00,,,-99.99,,2013-01-09 08:02:00,
2013-01-09 02:12:00,30.0,26.0,-100.00,West,280,16.0,20.0,83,0.00,,,-99.99,,2013-01-09 08:12:00,
2013-01-09 02:22:00,30.0,26.0,-100.00,West,280,15.0,19.0,84,0.00,,,-99.99,,2013-01-09 08:22:00,
2013-01-09 02:32:00,30.0,26.0,-100.00,WNW,285,14.0,19.0,84,0.00,,,-99.99,,2013-01-09 08:32:00,
2013-01-09 02:42:00,30.0,26.0,-100.00,WNW,285,14.0,19.0,84,0.00,,,-99.99,,2013-01-09 08:42:00,
2013-01-09 02:52:00,31.0,27.0,-100.00,West,280,16.0,19.0,84,0.00,,,-99.99,,2013-01-09 08:52:00,
2013-01-09 03:02:00,31.0,27.0,-100.00,West,280,16.0,19.0,84,0.00,,,-99.99,,2013-01-09 09:02:00,
2013-01-09 03:12:00,30.0,26.0,-100.00,West,265,13.0,19.0,84,0.00,,,-99.99,,2013-01-09 09:12:00,
2013-01-09 03:22:00,30.0,26.0,-100.00,West,280,14.0,18.0,85,0.00,,,-99.99,,2013-01-09 09:22:00,
2013-01-09 03:32:00,30.0,26.0,-100.00,West,275,12.0,16.0,85,0.00,,,-99.99,,2013-01-09 09:32:00,
2013-01-09 03:42:00,30.0,26.0,-100.00,West,275,12.0,16.0,85,0.00,,,-99.99,,2013-01-09 09:42:00,
2013-01-09 03:53:00,30.0,26.0,-100.00,West,270,14.0,18.0,85,0.00,,,-99.99,,2013-01-09 09:53:00,
2013-01-09 04:02:00,30.0,26.0,-100.00,West,270,14.0,18.0,85,0.00,,,-99.99,,2013-01-09 10:02:00,
2013-01-09 04:11:00,29.0,26.0,-100.00,West,270,13.0,17.0,85,0.00,,,-99.99,,2013-01-09 10:11:00,
2013-01-09 04:22:00,30.0,26.0,-100.00,West,280,15.0,19.0,85,0.00,,,-99.99,,2013-01-09 10:22:00,
2013-01-09 04:32:00,31.0,27.0,-100.00,West,275,15.0,21.0,85,0.00,,,-99.99,,2013-01-09 10:32:00,
2013-01-09 04:42:00,31.0,27.0,-100.00,West,275,15.0,21.0,85,0.00,,,-99.99,,2013-01-09 10:42:00,
2013-01-09 04:52:00,31.0,27.0,-100.00,West,280,12.0,19.0,83,0.00,,,-99.99,,2013-01-09 10:52:00,
2013-01-09 05:02:00,31.0,27.0,-100.00,West,280,12.0,19.0,83,0.00,,,-99.99,,2013-01-09 11:02:00,
2013-01-09 05:12:00,31.0,27.0,-100.00,WNW,290,11.0,16.0,83,0.00,,,-99.99,,2013-01-09 11:12:00,
2013-01-09 05:22:00,31.0,27.0,-100.00,WNW,290,11.0,15.0,83,0.00,,,-99.99,,2013-01-09 11:22:00,
2013-01-09 05:32:00,30.0,26.0,-100.00,WNW,295,9.0,14.0,83,0.00,,,-99.99,,2013-01-09 11:32:00,
2013-01-09 05:42:00,30.0,26.0,-100.00,WNW,295,9.0,14.0,83,0.00,,,-99.99,,2013-01-09 11:42:00,
2013-01-09 05:52:00,28.0,24.0,-100.00,WNW,285,9.0,11.0,85,0.00,,,-99.99,,2013-01-09 11:52:00,
2013-01-09 06:03:00,28.0,24.0,-100.00,WNW,285,9.0,11.0,85,0.00,,,-99.99,,2013-01-09 12:03:00,
2013-01-09 06:12:00,27.0,23.0,-100.00,West,280,9.0,12.0,85,0.00,,,-99.99,,2013-01-09 12:12:00,
2013-01-09 06:23:00,27.0,23.0,-100.00,West,270,9.0,11.0,86,0.00,,,-99.99,,2013-01-09 12:23:00,
2013-01-09 06:33:00,25.0,21.0,-100.00,West,260,12.0,15.0,87,0.00,,,-99.99,,2013-01-09 12:33:00,
2013-01-09 06:42:00,25.0,21.0,-100.00,West,260,12.0,15.0,87,0.00,,,-99.99,,2013-01-09 12:42:00,
2013-01-09 06:52:00,24.0,21.0,-100.00,West,265,11.0,12.0,88,0.00,,,-99.99,,2013-01-09 12:52:00,
2013-01-09 07:02:00,24.0,21.0,-100.00,West,265,11.0,12.0,88,0.00,,,-99.99,,2013-01-09 13:02:00,
2013-01-09 07:12:00,25.0,22.0,-100.00,West,280,11.0,14.0,88,0.00,,,-99.99,,2013-01-09 13:12:00,
2013-01-09 07:22:00,26.0,23.0,-100.00,West,265,11.0,14.0,88,0.00,,,-99.99,,2013-01-09 13:22:00,
2013-01-09 07:33:00,25.0,22.0,-100.00,WNW,285,11.0,14.0,88,0.00,,,-99.99,,2013-01-09 13:33:00,
2013-01-09 07:42:00,25.0,22.0,-100.00,WNW,285,11.0,14.0,88,0.00,,,-99.99,,2013-01-09 13:42:00,
2013-01-09 07:52:00,22.0,19.0,-100.00,WSW,255,12.0,12.0,88,0.00,,,-99.99,,2013-01-09 13:52:00,
2013-01-09 08:03:00,22.0,19.0,-100.00,WSW,255,12.0,12.0,88,0.00,,,-99.99,,2013-01-09 14:03:00,
2013-01-09 08:12:00,21.0,19.0,-100.00,West,260,12.0,13.0,88,0.00,,,-99.99,,2013-01-09 14:12:00,
2013-01-09 08:22:00,24.0,21.0,-100.00,West,270,12.0,14.0,88,0.00,,,-99.99,,2013-01-09 14:22:00,
2013-01-09 08:33:00,24.0,20.0,-100.00,West,260,9.0,14.0,87,0.00,,,-99.99,,2013-01-09 14:33:00,
2013-01-09 08:43:00,24.0,20.0,-100.00,West,260,9.0,14.0,87,0.00,,,-99.99,,2013-01-09 14:43:00,
2013-01-09 08:53:00,25.0,22.0,-100.00,West,280,10.0,12.0,87,0.00,,,-99.99,,2013-01-09 14:53:00,
2013-01-09 09:03:00,25.0,22.0,-100.00,West,280,10.0,12.0,87,0.00,,,-99.99,,2013-01-09 15:03:00,
2013-01-09 09:12:00,26.0,22.0,-100.00,SW,235,8.0,12.0,86,0.00,,,-99.99,,2013-01-09 15:12:00,
2013-01-09 09:22:00,26.0,22.0,-100.00,SW,230,6.0,11.0,85,0.00,,,-99.99,,2013-01-09 15:22:00,
2013-01-09 09:33:00,26.0,22.0,-100.00,SW,230,8.0,11.0,83,0.00,,,-99.99,,2013-01-09 15:33:00,
2013-01-09 09:42:00,26.0,22.0,-100.00,SW,230,8.0,11.0,83,0.00,,,-99.99,,2013-01-09 15:42:00,
2013-01-09 09:53:00,27.0,23.0,-100.00,West,265,6.0,9.0,82,0.00,,,-99.99,,2013-01-09 15:53:00,
2013-01-09 10:03:00,27.0,23.0,-100.00,West,265,6.0,9.0,82,0.00,,,-99.99,,2013-01-09 16:03:00,
2013-01-09 10:12:00,29.0,24.0,-100.00,WSW,250,5.0,9.0,80,0.00,,,-99.99,,2013-01-09 16:12:00,
2013-01-09 10:22:00,29.0,24.0,-100.00,WSW,240,6.0,7.0,78,0.00,,,-99.99,,2013-01-09 16:22:00,
2013-01-09 10:33:00,30.0,24.0,-100.00,WSW,250,11.0,12.0,77,0.00,,,-99.99,,2013-01-09 16:33:00,
2013-01-09 10:42:00,30.0,24.0,-100.00,WSW,250,11.0,12.0,77,0.00,,,-99.99,,2013-01-09 16:42:00,
2013-01-09 10:52:00,31.0,25.0,-100.00,WSW,245,6.0,11.0,76,0.00,,,-99.99,,2013-01-09 16:52:00,
2013-01-09 11:02:00,31.0,25.0,-100.00,WSW,245,6.0,11.0,76,0.00,,,-99.99,,2013-01-09 17:02:00,
2013-01-09 11:12:00,32.0,25.0,-100.00,WSW,245,6.0,9.0,74,0.00,,,-99.99,,2013-01-09 17:12:00,
2013-01-09 11:22:00,33.0,25.0,-100.00,WSW,240,10.0,12.0,72,0.00,,,-99.99,,2013-01-09 17:22:00,
2013-01-09 11:32:00,34.0,26.0,-100.00,SW,235,10.0,14.0,72,0.00,,,-99.99,,2013-01-09 17:32:00,
2013-01-09 11:43:00,34.0,26.0,-100.00,SW,235,10.0,14.0,72,0.00,,,-99.99,,2013-01-09 17:43:00,
2013-01-09 11:53:00,36.0,27.0,-100.00,SW,235,12.0,17.0,68,0.00,,,-99.99,,2013-01-09 17:53:00,
2013-01-09 12:03:00,36.0,27.0,-100.00,SW,235,12.0,17.0,68,0.00,,,-99.99,,2013-01-09 18:03:00,
2013-01-09 12:12:00,36.0,26.0,-100.00,SW,230,12.0,16.0,67,0.00,,,-99.99,,2013-01-09 18:12:00,
2013-01-09 12:23:00,36.0,26.0,-100.00,SW,230,10.0,13.0,66,0.00,,,-99.99,,2013-01-09 18:23:00,
2013-01-09 12:33:00,36.0,26.0,-100.00,SW,220,14.0,17.0,65,0.00,,,-99.99,,2013-01-09 18:33:00,
2013-01-09 12:43:00,36.0,26.0,-100.00,SW,220,14.0,17.0,65,0.00,,,-99.99,,2013-01-09 18:43:00,
2013-01-09 12:53:00,37.0,26.0,-100.00,SW,230,9.0,15.0,65,0.00,,,-99.99,,2013-01-09 18:53:00,
2013-01-09 13:03:00,37.0,26.0,-100.00,SW,230,9.0,15.0,65,0.00,,,-99.99,,2013-01-09 19:03:00,
2013-01-09 13:12:00,36.0,26.0,-100.00,WSW,240,10.0,12.0,66,0.00,,,-99.99,,2013-01-09 19:12:00,
2013-01-09 13:22:00,36.0,26.0,-100.00,WSW,240,9.0,12.0,67,0.00,,,-99.99,,2013-01-09 19:22:00,
2013-01-09 13:33:00,37.0,27.0,-100.00,SW,235,9.0,11.0,66,0.00,,,-99.99,,2013-01-09 19:33:00,
2013-01-09 13:43:00,37.0,27.0,-100.00,SW,235,9.0,11.0,66,0.00,,,-99.99,,2013-01-09 19:43:00,
2013-01-09 13:52:00,38.0,27.0,-100.00,SW,235,10.0,14.0,65,0.00,,,-99.99,,2013-01-09 19:52:00,
2013-01-09 14:02:00,38.0,27.0,-100.00,SW,235,10.0,14.0,65,0.00,,,-99.99,,2013-01-09 20:02:00,
2013-01-09 14:12:00,37.0,27.0,-100.00,WSW,240,7.0,12.0,65,0.00,,,-99.99,,2013-01-09 20:12:00,
2013-01-09 14:22:00,38.0,27.0,-100.00,WSW,245,4.0,9.0,64,0.00,,,-99.99,,2013-01-09 20:22:00,
2013-01-09 14:33:00,40.0,28.0,-100.00,South,190,2.0,3.0,60,0.00,,,-99.99,,2013-01-09 20:33:00,
2013-01-09 14:42:00,40.0,28.0,-100.00,South,190,2.0,3.0,60,0.00,,,-99.99,,2013-01-09 20:42:00,
2013-01-09 14:52:00,40.0,27.0,-100.00,South,185,4.0,8.0,57,0.00,,,-99.99,,2013-01-09 20:52:00,
2013-01-09 15:03:00,40.0,27.0,-100.00,South,185,4.0,8.0,57,0.00,,,-99.99,,2013-01-09 21:03:00,
2013-01-09 15:12:00,40.0,26.0,-100.00,SSW,195,4.0,7.0,58,0.00,,,-99.99,,2013-01-09 21:12:00,
2013-01-09 15:22:00,40.0,27.0,-100.00,SE,130,1.0,4.0,57,0.00,,,-99.99,,2013-01-09 21:22:00,
2013-01-09 15:33:00,40.0,26.0,-100.00,SE,135,2.0,2.0,56,0.00,,,-99.99,,2013-01-09 21:33:00,
2013-01-09 15:43:00,40.0,26.0,-100.00,SE,135,2.0,2.0,56,0.00,,,-99.99,,2013-01-09 21:43:00,
2013-01-09 15:52:00,40.0,27.0,-100.00,ESE,115,1.0,2.0,57,0.00,,,-99.99,,2013-01-09 21:52:00,
2013-01-09 16:03:00,40.0,27.0,-100.00,ESE,115,1.0,2.0,57,0.00,,,-99.99,,2013-01-09 22:03:00,
2013-01-09 16:12:00,40.0,25.0,-100.00,SE,140,4.0,5.0,56,0.00,,,-99.99,,2013-01-09 22:12:00,
2013-01-09 16:22:00,40.0,26.0,-100.00,SSE,165,4.0,4.0,58,0.00,,,-99.99,,2013-01-09 22:22:00,
2013-01-09 16:33:00,38.0,26.0,-100.00,SSE,160,6.0,6.0,59,0.00,,,-99.99,,2013-01-09 22:33:00,
2013-01-09 16:42:00,38.0,26.0,-100.00,SSE,160,6.0,6.0,59,0.00,,,-99.99,,2013-01-09 22:42:00,
2013-01-09 16:52:00,36.0,25.0,-100.00,SSE,155,10.0,11.0,63,0.00,,,-99.99,,2013-01-09 22:52:00,
2013-01-09 17:02:00,36.0,25.0,-100.00,SSE,155,10.0,11.0,63,0.00,,,-99.99,,2013-01-09 23:02:00,
2013-01-09 17:12:00,35.0,26.0,-100.00,ESE,120,4.0,11.0,67,0.00,,,-99.99,,2013-01-09 23:12:00,
2013-01-09 17:22:00,34.0,26.0,-100.00,SSE,150,7.0,9.0,69,0.00,,,-99.99,,2013-01-09 23:22:00,
2013-01-09 17:33:00,32.0,25.0,-100.00,SE,140,7.0,9.0,74,0.00,,,-99.99,,2013-01-09 23:33:00,
2013-01-09 17:42:00,32.0,25.0,-100.00,SE,140,7.0,9.0,74,0.00,,,-99.99,,2013-01-09 23:42:00,
2013-01-09 17:52:00,32.0,26.0,-100.00,SE,145,9.0,10.0,78,0.00,,,-99.99,,2013-01-09 23:52:00,
2013-01-09 18:03:00,32.0,26.0,-100.00,SE,145,9.0,10.0,78,0.00,,,-99.99,,2013-01-10 00:03:00,
2013-01-09 18:12:00,32.0,27.0,-100.00,SE,140,8.0,9.0,80,0.00,,,-99.99,,2013-01-10 00:12:00,
2013-01-09 18:22:00,31.0,26.0,-100.00,SSE,150,9.0,10.0,81,0.00,,,-99.99,,2013-01-10 00:22:00,
2013-01-09 18:32:00,31.0,27.0,-100.00,SSE,160,12.0,13.0,83,0.00,,,-99.99,,2013-01-10 00:32:00,
2013-01-09 18:42:00,31.0,27.0,-100.00,SSE,160,12.0,13.0,83,0.00,,,-99.99,,2013-01-10 00:42:00,
2013-01-09 18:52:00,31.0,27.0,-100.00,South,170,9.0,12.0,83,0.00,,,-99.99,,2013-01-10 00:52:00,
2013-01-09 19:02:00,31.0,27.0,-100.00,South,170,9.0,12.0,83,0.00,,,-99.99,,2013-01-10 01:02:00,
2013-01-09 19:12:00,31.0,27.0,-100.00,SSE,160,9.0,12.0,83,0.00,,,-99.99,,2013-01-10 01:12:00,
2013-01-09 19:22:00,31.0,27.0,-100.00,South,170,12.0,12.0,84,0.00,,,-99.99,,2013-01-10 01:22:00,
2013-01-09 19:33:00,32.0,28.0,-100.00,SSE,160,12.0,15.0,85,0.00,,,-99.99,,2013-01-10 01:33:00,
2013-01-09 19:42:00,32.0,28.0,-100.00,SSE,160,12.0,15.0,85,0.00,,,-99.99,,2013-01-10 01:42:00,
2013-01-09 19:52:00,33.0,29.0,-100.00,SSE,155,12.0,15.0,85,0.00,,,-99.99,,2013-01-10 01:52:00,
2013-01-09 20:03:00,33.0,29.0,-100.00,SSE,155,12.0,15.0,85,0.00,,,-99.99,,2013-01-10 02:03:00,
2013-01-09 20:12:00,32.0,28.0,-100.00,SSE,160,10.0,16.0,85,0.00,,,-99.99,,2013-01-10 02:12:00,
2013-01-09 20:22:00,32.0,28.0,-100.00,SSE,155,9.0,13.0,85,0.00,,,-99.99,,2013-01-10 02:22:00,
2013-01-09 20:32:00,31.0,28.0,-100.00,SSE,150,11.0,12.0,86,0.00,,,-99.99,,2013-01-10 02:32:00,
2013-01-09 20:42:00,31.0,28.0,-100.00,SSE,150,11.0,12.0,86,0.00,,,-99.99,,2013-01-10 02:42:00,
2013-01-09 20:52:00,31.0,28.0,-100.00,SSE,150,11.0,12.0,86,0.00,,,-99.99,,2013-01-10 02:52:00,
2013-01-09 21:02:00,32.0,29.0,-100.00,SSE,165,13.0,16.0,86,0.00,,,-99.99,,2013-01-10 03:02:00,
2013-01-09 21:12:00,32.0,28.0,-100.00,SSE,160,13.0,16.0,87,0.00,,,-99.99,,2013-01-10 03:12:00,
2013-01-09 21:22:00,31.0,28.0,-100.00,SSE,160,12.0,14.0,87,0.00,,,-99.99,,2013-01-10 03:22:00,
2013-01-09 21:33:00,31.0,28.0,-100.00,SSE,165,12.0,16.0,87,0.00,,,-99.99,,2013-01-10 03:33:00,
2013-01-09 21:42:00,31.0,28.0,-100.00,SSE,165,12.0,16.0,87,0.00,,,-99.99,,2013-01-10 03:42:00,
2013-01-09 21:52:00,31.0,28.0,-100.00,SSE,165,11.0,16.0,87,0.00,,,-99.99,,2013-01-10 03:52:00,
2013-01-09 22:02:00,31.0,28.0,-100.00,SSE,165,11.0,16.0,87,0.00,,,-99.99,,2013-01-10 04:02:00,
2013-01-09 22:12:00,31.0,28.0,-100.00,South,170,10.0,14.0,87,0.00,,,-99.99,,2013-01-10 04:12:00,
2013-01-09 22:22:00,31.0,28.0,-100.00,South,170,10.0,15.0,87,0.00,,,-99.99,,2013-01-10 04:22:00,
2013-01-09 22:32:00,30.0,27.0,-100.00,SSE,160,11.0,12.0,87,0.00,,,-99.99,,2013-01-10 04:32:00,
2013-01-09 22:42:00,30.0,27.0,-100.00,SSE,160,11.0,12.0,87,0.00,,,-99.99,,2013-01-10 04:42:00,
2013-01-09 22:52:00,30.0,27.0,-100.00,SSE,160,10.0,12.0,87,0.00,,,-99.99,,2013-01-10 04:52:00,
2013-01-09 23:03:00,30.0,27.0,-100.00,SSE,160,10.0,12.0,87,0.00,,,-99.99,,2013-01-10 05:03:00,
2013-01-09 23:12:00,30.0,27.0,-100.00,SSE,160,9.0,12.0,87,0.00,,,-99.99,,2013-01-10 05:12:00,
2013-01-09 23:22:00,30.0,27.0,-100.00,SSE,165,9.0,11.0,87,0.00,,,-99.99,,2013-01-10 05:22:00,
2013-01-09 23:33:00,30.0,27.0,-100.00,South,170,8.0,12.0,87,0.00,,,-99.99,,2013-01-10 05:33:00,
2013-01-09 23:42:00,30.0,27.0,-100.00,South,170,8.0,12.0,87,0.00,,,-99.99,,2013-01-10 05:42:00,
2013-01-09 23:52:00,31.0,27.0,-100.00,South,170,11.0,14.0,87,0.00,,,-99.99,,2013-01-10 05:52:00,